Location: Boiro
(42.6475°N, 8.8834°W)
Time: 18:06:40
(UTC+01:00)

A-11 Canister half - Pass Details

Date: 08 December 2021
Orbit: 1516 x 1684 km, 47.2° (Epoch: 26 January)

Event Time Altitude Azimuth Distance (km) Brightness Sun altitude
Rises 06:38:00 0° 217° (SW) 4,698 11.3 -24.0°
Reaches altitude 10° 06:41:06 10° 213° (SSW) 3,736 10.8 -23.5°
Maximum altitude 06:50:11 52° 140° (SE) 1,911 9.7 -21.8°
Drops below altitude 10° 06:59:36 10° 68° (ENE) 3,878 11.9 -20.1°
Sets 07:02:52 0° 64° (ENE) 4,887 12.4 -19.5°
